Location: Bourg-d�Oueil
(42.8588°N, 0.4991°E)
Time: 20:14:47
(UTC+00:00)

SL-8 R/B - Pass Details

Date: 16 June 2021
Orbit: 656 x 667 km, 48.4° (Epoch: 23 July)

Event Time Altitude Azimuth Distance (km) Brightness Sun altitude
Rises 23:13:42 0° 294° (WNW) 2,989 7.6 -22.9°
Reaches altitude 10° 23:16:08 10° 288° (WNW) 2,072 6.6 -23.0°
Enters shadow 23:19:52 40° 244° (WSW) 970 4.4 -23.2°
